Location: Staunton
(38.1490°N, 79.0720°W)
Time: 22:18:31
(UTC-05:00)

ISS - Pass Details

Date: 04 March 2021
Orbit: 417 x 422 km, 51.6° (Epoch: 26 February)

Event Time Altitude Azimuth Distance (km) Brightness Sun altitude
Exits shadow 05:54:28 - 325° (NW) 2,076 -0.6 -10.4°
Reaches altitude 10° 05:57:06 10° 358° (N) 1,496 -1.0 -9.9°
Maximum altitude 05:58:03 11° 14° (NNE) 1,442 -0.9 -9.7°
Drops below altitude 10° 05:59:00 10° 31° (NNE) 1,496 -0.5 -9.5°
Sets 06:02:32 0° 70° (ENE) 2,358 1.6 -8.9°
